Regional Weather Roundup
Issued by NWS Little Rock, AR

Home | Current Version | Previous Version | Graphics & Text | Print | Product List | Glossary On
Versions: 1 2 3 4 5 6 7 8 9 10 11 12 13 14 15 16 17 18 19 20 21 22 23 24 25 26 27 28 29 30 31 32 33 34 35 36 37 38 39 40 41 42 43 44 45 46 47 48 49 50
000
ASUS44 KLZK 182205
RWRLZK

WEATHER ROUNDUP FOR ARKANSAS
NATIONAL WEATHER SERVICE LITTLE ROCK AR
500 PM CDT THU SEP 18 2014

NOTE: "FAIR" INDICATES FEW OR NO CLOUDS BELOW 12,000 FEET WITH NO
SIGNIFICANT WEATHER AND/OR OBSTRUCTIONS TO VISIBILITY.

ARZ001-003-010-029-182300-
NORTHWEST ARKANSAS

CITY           SKY/WX    TMP DP  RH WIND       PRES   REMARKS
FAYETTEVILLE   MOSUNNY   80  66  62 E6        29.93F
FORT SMITH     SUNNY     82  64  54 E9        29.90S
HARRISON       PTSUNNY   71  64  78 E6        29.99F
BENTONVILLE    MOSUNNY   77  64  65 E10       29.96F
ROGERS         MOSUNNY   75  64  68 E7        29.97F
SILOAM SPGS    MOSUNNY   79  63  57 E6        29.95S
HIGHFILL       CLOUDY    76  63  64 E7        29.95F
SPRINGDALE     MOSUNNY   79  66  65 E12       29.97S
$$

ARZ004-005-016-182300-
NORTH CENTRAL ARKANSAS

CITY           SKY/WX    TMP DP  RH WIND       PRES   REMARKS
BATESVILLE     CLOUDY    72  64  78 N7        29.97R
FLIPPIN        CLOUDY    66  61  82 NE5       29.99S
MTN HOME       CLOUDY    65  63  93 E5        29.99S FOG
$$

ARZ040-041-182300-
WEST CENTRAL ARKANSAS

CITY           SKY/WX    TMP DP  RH WIND       PRES   REMARKS
MENA           MOSUNNY   82  70  65 CALM      29.91S HX  86
MOUNT IDA      SUNNY     83  68  60 CALM      29.89F HX  86
$$

ARZ009-017-025-026-028-182300-
NORTHEAST ARKANSAS

CITY           SKY/WX    TMP DP  RH WIND       PRES   REMARKS
CORNING          N/A     73  64  73 NE7       29.97S
JONESBORO      CLOUDY    71  63  75 NE8       29.95S
NEWPORT        CLOUDY    73  65  76 N8        29.96S
WALNUT RIDGE   PTSUNNY   70  63  78 NE8       29.96S
BLYTHEVILLE    PTSUNNY   75  64  68 NE9       29.96S
$$

ARZ022-023-033-042-044-182300-
CENTRAL ARKANSAS

CITY           SKY/WX    TMP DP  RH WIND       PRES   REMARKS
LITTLE ROCK    PTSUNNY   80  67  64 NE10      29.92F
N LITTLE ROCK  PTSUNNY   79  71  74 E13       29.92F
JACKSONVILLE   PTSUNNY   80  68  68 VRB6      29.92F
SEARCY         CLOUDY    77  67  71 N12       29.94S
HOT SPRINGS    SUNNY     83  68  60 E14       29.90S HX  86
RUSSELLVILLE   MOSUNNY   81  68  64 VRB6      29.92S
CLINTON        CLOUDY    75  68  78 E3        29.96R HAZE
$$

ARZ036-182300-
EAST ARKANSAS

CITY           SKY/WX    TMP DP  RH WIND       PRES   REMARKS
WEST MEMPHIS   PTSUNNY   79  70  74 NE8       29.90S
$$

ARZ050-053-066-070-073-182300-
SOUTHWEST ARKANSAS

CITY           SKY/WX    TMP DP  RH WIND       PRES   REMARKS
ARKADELPHIA    MOCLDY    87  74  65 CALM      29.87S HX  95
CAMDEN         PTSUNNY   82  72  69 SE3       29.86F HX  87
TEXARKANA      PTSUNNY   82  73  74 E5        29.87F HX  87
EL DORADO      PTSUNNY   84  70  62 CALM      29.87S HX  88
DE QUEEN       MOSUNNY   82  69  64 CALM      29.86S HX  85
$$

ARZ056-057-069-182300-
SOUTHEAST ARKANSAS

CITY           SKY/WX    TMP DP  RH WIND       PRES   REMARKS
PINE BLUFF     MOSUNNY   77  67  71 E8        29.91R THUNDER
STUTTGART      CLOUDY    81  70  69 N12       29.92S
MONTICELLO     CLOUDY    81  67  62 CALM      29.88R

$$




USA.gov is the U.S. government's official web portal to all federal, state and local government web resources and services.